GSAT0207

Last updated on Dec. 15, 2016, 12:17 a.m. UTC

1 41859U 16069A   16346.95437637  .00000086  00000-0  00000+0 0  9996
2 41859  54.6014 197.6101 0006918 276.5136  83.5038  1.70169235   403
UTC
Height (km)
Latitude
Longitude
Inclination
Orbital Period
UTC large
Height (km)
Speed (km/s)
/
Latitude / Longitude
Inclination (degrees)
Orbital Period (minutes)
Azimuth
Elevation
Range (km)
Doppler Factor
iOS Compass Heading
iOS Angle

Next 30 passes for location: Hong Kong

Rise time Rise Azimuth (degrees) Set time Set Azimuth (degrees) Duration Max altitude (degrees)

No matching passes for this satellites